Weather History for KEAT - November, 2010

Change the Weather History Date:

Saturday, November 6, 2010

  Actual Average Record
Temperature  
Mean Temperature 48 °F 38 °F  
Max Temperature 57 °F 46 °F 59 °F (1997)
Min Temperature 39 °F 30 °F 14 °F (2003)
Degree Days  
Heating Degree Days 17 27  
Month to date heating degree days 119 158  
Since 1 July heating degree days 1059 1114  
Cooling Degree Days 0 0  
Month to date cooling degree days 0 0  
Year to date cooling degree days 183 249  
Moisture  
Dew Point 42 °F    
Average Humidity 96    
Maximum Humidity 100    
Minimum Humidity 77    
Precipitation  
Precipitation 0.06 in 0.07 in 0.83 in (2006)
Month to date precipitation 0.36 0.36  
Year to date precipitation 14.64 12.70  
Snow  
Snow 0.00 in 0.10 in - ()
Month to date snowfall 0.0 0.3  
Since 1 July snowfall 0.0 0.4  
Since 1 September snowfall 0.0 0.4  
Snow Depth 0.00 in    
Sea Level Pressure  
Sea Level Pressure 29.79 in    
Wind  
Wind Speed 2 mph (SW)    
Max Wind Speed 15 mph    
Max Gust Speed 21 mph    
Visibility 3 miles    
Events Fog , Rain    
T = Trace of Precipitation, MM = Missing Value Source: NWS Daily Summary

Daily Weather History Graph

Daily Weather History Graph

Search for Another Location

Airport or City:

Trip Planner

Search our weather history database for the weather conditions in past years. The results will help you decide how hot, cold, wet, or windy it might be!

Date:

Astronomy

Nov. 06, 2010 Rise Set
Actual Time 7:52 AM PDT 5:36 PM PDT
Civil Twilight 7:19 AM PDT 6:08 PM PDT
Nautical Twilight 6:42 AM PDT 6:45 PM PDT
Astronomical Twilight 6:07 AM PDT 7:21 PM PDT
Moon 8:44 AM PDT (11/6) 5:38 PM PDT (11/6)
Length of Visible Light 10h 49m
Length of Day
9h 44m
New Moon, 0% of the Moon is Illuminated
Nov 6
New Moon
Nov 13
First Quarter
Nov 21
Full
Nov 28
Last Quarter
Dec 5
New

Hourly Weather History & Observations

Time (PDT) Temp. Windchill Dew Point Humidity Pressure Visibility Wind Dir Wind Speed Gust Speed Precip Events Conditions
12:55 AM 39.9 °F - 39.0 °F 97% 29.85 in 6.0 mi Calm Calm - N/A   Clear
1:55 AM 39.0 °F - 37.9 °F 96% 29.85 in 5.0 mi Calm Calm - N/A   Clear
2:55 AM 39.9 °F - 39.0 °F 97% 29.85 in 6.0 mi Calm Calm - N/A   Overcast
3:55 AM 39.9 °F - 39.0 °F 97% 29.85 in 5.0 mi Calm Calm - N/A   Partly Cloudy
4:55 AM 39.9 °F - 39.0 °F 97% 29.85 in 5.0 mi Calm Calm - N/A   Partly Cloudy
5:55 AM 39.9 °F - 39.0 °F 97% 29.83 in 4.0 mi Calm Calm - N/A   Mostly Cloudy
6:01 AM 39.2 °F - 39.2 °F 100% 29.81 in 1.2 mi Calm Calm - N/A   Mostly Cloudy
6:10 AM 39.2 °F - 39.2 °F 100% 29.81 in 0.8 mi Calm Calm - N/A   Mostly Cloudy
6:16 AM 39.2 °F - 39.2 °F 100% 29.81 in 2.0 mi Calm Calm - N/A   Mostly Cloudy
6:25 AM 39.2 °F - 39.2 °F 100% 29.81 in 0.8 mi Calm Calm - N/A   Mostly Cloudy
6:34 AM 39.2 °F 37.0 °F 39.2 °F 100% 29.81 in 0.2 mi SW 3.5 mph - N/A Fog Fog
6:45 AM 39.2 °F - 39.2 °F 100% 29.81 in 0.8 mi Calm Calm - N/A   Overcast
6:51 AM 39.2 °F - 39.2 °F 100% 29.81 in 2.0 mi Calm Calm - N/A   Overcast
6:52 AM 39.9 °F - 39.9 °F 100% 29.83 in 2.0 mi Calm Calm - N/A   Overcast
7:25 AM 39.2 °F - 39.2 °F 100% 29.82 in 3.0 mi Calm Calm - 0.00 in Rain Light Rain
7:48 AM 39.2 °F 35.0 °F 39.2 °F 100% 29.81 in 1.8 mi SSE 5.8 mph - 0.00 in Rain Light Rain
7:50 AM 39.2 °F 37.0 °F 39.2 °F 100% 29.82 in 0.8 mi SSE 3.5 mph - 0.00 in Rain Light Rain
7:55 AM 39.9 °F - 39.9 °F 100% 29.83 in 0.2 mi Calm Calm - 0.00 in Fog Fog
8:06 AM 39.2 °F 35.0 °F 39.2 °F 100% 29.82 in 0.2 mi West 5.8 mph - N/A Fog Fog
8:09 AM 39.2 °F 35.0 °F 39.2 °F 100% 29.82 in 0.2 mi West 5.8 mph - N/A Fog Fog
8:35 AM 39.2 °F - 39.2 °F 100% 29.82 in 1.0 mi Calm Calm - N/A   Mostly Cloudy
8:39 AM 39.2 °F - 39.2 °F 100% 29.82 in 1.2 mi Calm Calm - N/A   Scattered Clouds
8:53 AM 39.2 °F 35.9 °F 39.2 °F 100% 29.82 in 0.8 mi NE 4.6 mph - N/A   Mist
8:55 AM 39.9 °F 37.8 °F 39.9 °F 100% 29.84 in 0.5 mi NNE 3.5 mph - N/A Fog Fog
9:16 AM 41.0 °F - 39.2 °F 93% 29.82 in 1.5 mi North - - N/A   Scattered Clouds
9:28 AM 41.0 °F - 41.0 °F 100% 29.82 in 0.5 mi Calm Calm - N/A Fog Fog
9:42 AM 42.8 °F - 41.0 °F 93% 29.82 in 0.8 mi Calm Calm - N/A   Mostly Cloudy
9:55 AM 42.1 °F 40.2 °F 41.0 °F 96% 29.83 in 2.5 mi West 3.5 mph - N/A   Mostly Cloudy
10:04 AM 42.8 °F 38.6 °F 41.0 °F 93% 29.81 in 3.0 mi West 6.9 mph - N/A   Mostly Cloudy
10:10 AM 42.8 °F 38.0 °F 41.0 °F 93% 29.81 in 2.5 mi West 8.1 mph - N/A   Scattered Clouds
10:15 AM 42.8 °F 37.5 °F 41.0 °F 93% 29.81 in 1.8 mi West 9.2 mph - N/A   Scattered Clouds
10:24 AM 42.8 °F 38.6 °F 42.8 °F 100% 29.82 in 1.8 mi West 6.9 mph - N/A   Mostly Cloudy
10:43 AM 42.8 °F 40.1 °F 42.8 °F 100% 29.82 in 2.5 mi WSW 4.6 mph - N/A   Mostly Cloudy
10:51 AM 42.8 °F 41.1 °F 42.8 °F 100% 29.82 in 4.0 mi WSW 3.5 mph - N/A   Mostly Cloudy
10:55 AM 43.0 °F - 42.1 °F 97% 29.84 in 5.0 mi Calm Calm - N/A   Scattered Clouds
11:05 AM 42.8 °F - 42.8 °F 100% 29.82 in 6.0 mi Calm Calm - N/A   Mostly Cloudy
11:32 AM 44.6 °F - 42.8 °F 93% 29.83 in 4.0 mi Calm Calm - N/A   Mostly Cloudy
11:55 AM 46.9 °F - 44.1 °F 90% 29.84 in 4.0 mi Calm Calm - N/A   Clear
12:55 PM 46.9 °F - 44.1 °F 90% 29.81 in 6.0 mi WSW 5.8 mph - N/A   Clear
1:55 PM 50.0 °F - 43.0 °F 77% 29.78 in 7.0 mi Calm Calm - N/A   Clear
2:55 PM 50.0 °F - 43.0 °F 77% 29.78 in 6.0 mi SSW 3.5 mph - N/A   Haze
3:55 PM 50.0 °F - 44.1 °F 80% 29.77 in 6.0 mi West 4.6 mph - N/A   Haze
4:55 PM 50.0 °F - 44.1 °F 80% 29.75 in 6.0 mi Calm Calm - N/A   Haze
5:55 PM 48.0 °F - 44.1 °F 86% 29.74 in 6.0 mi Calm Calm - N/A   Clear
7:55 PM 48.0 °F - 45.0 °F 89% 29.73 in 5.0 mi Calm Calm - 0.00 in   Mostly Cloudy
8:07 PM 48.2 °F - 44.6 °F 87% 29.71 in 6.0 mi Calm Calm - 0.00 in Rain Light Rain
8:55 PM 48.0 °F - 46.0 °F 93% 29.70 in 4.0 mi Calm Calm - 0.00 in Rain Light Rain
9:21 PM 46.4 °F - 46.4 °F 100% 29.70 in 4.0 mi Calm Calm - 0.01 in Rain Light Rain
9:33 PM 46.4 °F - 46.4 °F 100% 29.69 in 4.0 mi Calm Calm - 0.01 in Rain Light Rain
9:55 PM 46.9 °F - 46.0 °F 97% 29.70 in 4.0 mi Calm Calm - 0.01 in Rain Light Rain
10:21 PM 46.4 °F 44.3 °F 46.4 °F 100% 29.69 in 2.5 mi ESE 4.6 mph - 0.01 in Rain Light Rain
10:55 PM 48.0 °F - 46.9 °F 96% 29.69 in 2.5 mi East 11.5 mph - 0.01 in   Overcast
11:09 PM 48.2 °F - 46.4 °F 93% 29.67 in 3.0 mi East 15.0 mph 20.7 mph N/A   Overcast
11:24 PM 48.2 °F - 46.4 °F 93% 29.67 in 3.0 mi ESE 11.5 mph - N/A   Mostly Cloudy
11:55 PM 48.0 °F - 46.9 °F 96% 29.68 in 3.0 mi East 10.4 mph - N/A   Overcast